Temperature
26 24 24 24 25 25 25 24 24 24 24 24 23 22 22 22 22 22 22 22 22 22 22 22 21 21 21 20 20 20 20 19 19 19 19 19 18 18 18 18 18 18 18 18
24 24 25 25 25 25 25 24 24 24 24 24 22 22 22 22 22 22 22 22 22 22 22 22 22 21 21 21 20 20 20 19 19 19 19 19 18 18 18 18 18 18 18 18
25 25 25 26 25 25 25 24 24 24 24 23 23 22 22 22 22 22 23 23 23 23 22 22 22 22 21 21 21 20 20 20 19 19 19 19 18 18 18 18 18 18 18 18
25 25 26 26 25 25 25 25 25 24 23 22 23 22 22 21 21 21 22 22 23 23 23 23 22 22 22 22 21 21 20 20 20 19 19 19 19 19 19 18 18 18 18 18
25 25 26 26 26 26 25 24 24 23 22 21 22 22 21 21 21 21 21 22 23 23 23 23 23 23 23 22 22 21 21 20 20 19 19 19 19 19 18 18 18 18 18 18
25 25 26 26 26 25 24 23 22 20 20 21 22 22 21 20 21 21 22 23 23 23 24 24 23 23 23 22 22 21 21 20 20 19 19 19 19 19 19 18 18 18 18 18
25 25 25 26 25 25 23 21 21 21 20 21 21 21 21 22 22 22 22 23 23 24 24 23 23 23 23 23 22 22 21 21 20 20 19 19 19 19 19 19 18 18 18 18
23 23 25 25 25 23 22 22 21 22 21 20 20 21 22 23 23 23 23 23 23 23 24 24 24 23 23 23 23 22 22 21 21 20 20 19 19 19 19 19 19 18 18 18
22 23 24 25 25 23 22 21 21 19 20 20 20 20 21 22 22 22 22 22 23 23 24 24 24 24 23 23 23 23 22 22 21 21 20 20 19 19 19 19 19 18 18 18
21 23 24 24 24 23 22 19 18 19 20 21 22 22 21 23 22 21 21 22 22 23 23 24 24 24 24 24 23 23 22 22 22 21 21 20 20 19 19 19 19 18 18 18
21 22 23 23 24 23 22 20 18 17 19 20 21 22 22 22 21 21 21 22 22 23 23 24 24 24 24 23 23 23 22 22 22 21 21 20 20 20 19 19 19 19 18 18
19 18 20 22 22 22 23 21 18 20 20 18 20 21 23 21 21 21 21 22 23 23 24 24 24 24 23 23 23 23 22 22 22 21 21 21 20 20 20 19 19 19 18 18
19 18 20 21 21 21 22 20 19 17 16 17 20 22 22 20 20 21 22 22 23 23 23 23 23 23 23 23 23 23 23 22 22 21 21 21 20 20 20 20 19 19 18 18
18 17 19 21 20 20 21 21 19 18 18 18 19 21 21 21 20 20 21 22 22 23 23 23 23 23 23 23 23 23 23 22 22 21 21 21 21 20 20 20 19 19 18 18
18 18 19 19 20 21 21 21 20 20 19 20 20 20 21 20 20 20 21 22 22 22 23 23 23 23 23 23 23 23 22 22 22 21 21 21 21 20 20 20 19 19 18 18
15 17 18 20 20 20 21 21 21 21 20 20 21 20 19 20 20 20 21 21 21 22 22 23 23 23 23 23 23 23 22 22 22 21 21 21 20 20 20 19 19 19 19 18
14 16 17 18 19 21 20 20 20 21 20 20 20 20 19 19 19 20 20 21 21 22 22 22 23 23 23 22 22 22 22 22 21 21 21 21 20 20 20 19 19 19 19 18
14 14 14 16 19 20 20 20 20 20 20 19 19 19 19 19 20 20 21 21 21 21 22 22 22 22 22 22 22 22 21 21 21 21 20 20 20 20 20 19 19 19 18 18
13 14 14 14 17 18 19 20 19 19 20 19 18 18 19 19 19 20 21 21 21 21 22 22 22 22 22 22 22 21 21 21 21 20 20 20 20 19 19 19 18 18 18 18
12 13 14 14 17 18 19 20 20 20 19 19 18 18 18 18 18 18 20 21 21 21 22 22 22 22 22 21 21 21 21 21 20 20 20 19 19 19 19 19 18 18 18 18
14 13 14 14 16 17 17 18 19 19 19 19 18 18 18 18 19 20 20 20 21 21 21 21 21 21 21 21 21 21 20 21 20 20 20 19 19 19 19 18 18 18 18 17
14 13 13 13 15 17 17 17 18 17 18 18 18 18 18 18 19 20 20 20 20 20 20 20 21 21 21 21 21 20 20 20 20 19 19 19 19 18 18 18 18 17 17 17
13 13 13 14 15 15 16 17 18 18 18 18 18 19 18 18 19 19 19 19 19 20 20 20 20 20 20 20 20 20 20 19 19 19 18 18 18 17 17 17 17 17 16 16
13 12 12 13 14 15 16 17 18 18 18 19 19 19 18 18 18 19 19 19 19 19 19 19 19 19 19 19 19 19 19 19 18 18 18 17 17 17 17 16 16 16 16 15
12 12 12 13 14 15 16 16 17 18 18 18 18 18 18 19 18 18 18 18 19 19 19 19 19 19 19 19 18 18 18 18 18 18 17 17 17 17 16 16 16 16 15 15
11 12 12 13 14 13 15 16 16 17 17 17 17 18 18 18 18 18 18 18 18 18 18 18 18 18 18 18 18 17 17 17 17 17 17 16 16 16 16 15 15 15 15 15
Wind_Speed
4 5 4 7 7 6 6 5 4 4 3 5 5 5 7 9 9 9 9 9 9 10 7 6 7 7 6 5 5 5 5 5 4 3 2 2 1 0 1 1 1 1 2 3
5 2 6 4 4 4 5 4 2 1 2 3 3 3 5 9 12 11 12 11 11 8 6 7 7 7 8 7 7 6 6 6 5 3 2 2 2 1 1 1 1 1 2 2
5 5 4 5 4 4 3 6 5 4 3 4 3 3 3 5 6 7 8 9 10 12 12 10 9 9 8 8 8 8 7 6 5 4 3 3 3 2 2 1 1 1 1 2
4 4 4 5 5 6 4 6 6 6 5 1 2 3 6 5 6 9 10 10 11 11 11 10 10 10 10 10 8 7 7 6 5 5 4 4 3 2 2 1 0 1 2 2
4 3 4 4 5 6 4 3 6 5 5 2 1 2 7 2 7 12 12 12 12 12 13 13 13 12 11 9 8 7 7 6 5 5 6 5 3 2 1 1 2 1 2 2
4 2 4 5 2 6 7 8 8 7 5 1 3 3 7 5 8 8 11 12 12 12 12 12 10 9 8 8 8 8 7 6 6 6 6 6 6 4 3 3 2 1 1 1
2 3 2 3 4 3 7 7 4 4 3 5 2 3 9 8 7 9 10 12 11 11 11 11 11 11 10 10 10 9 9 8 7 7 6 6 6 6 5 4 3 2 1 0
4 5 4 3 6 7 6 9 9 6 6 5 1 6 8 6 5 5 6 8 9 11 11 12 13 13 12 12 11 10 10 9 8 8 6 5 5 4 4 4 3 3 2 2
7 6 4 3 2 9 7 4 7 7 3 1 5 7 9 3 2 2 4 6 10 12 12 12 12 12 12 12 12 12 11 9 8 8 7 6 5 5 4 4 3 3 2 2
8 4 4 2 5 5 6 9 7 7 6 3 5 5 5 5 5 3 5 7 9 9 9 10 11 12 12 11 10 10 10 10 9 8 7 6 5 5 4 4 4 3 2 2
5 5 3 2 3 4 5 5 6 5 6 7 4 7 7 9 8 7 8 7 7 8 9 10 10 10 9 9 9 10 9 9 8 8 7 6 5 5 5 4 4 3 3 3
4 6 2 5 3 1 4 7 7 6 4 5 5 8 5 6 6 6 6 6 6 6 7 7 8 8 9 10 10 10 9 9 8 8 7 6 5 5 5 5 4 4 3 3
5 6 3 4 5 3 3 3 5 6 6 6 5 8 3 2 1 3 5 5 5 6 6 6 6 8 9 10 10 10 10 10 8 8 8 7 6 6 5 5 4 4 4 3
6 5 7 9 7 4 2 2 5 6 5 6 8 8 6 4 3 4 4 5 5 6 6 7 6 6 7 8 9 9 9 9 9 9 8 8 8 7 6 5 5 4 4 4
5 4 4 4 4 4 4 4 6 6 8 9 9 8 9 7 6 5 5 5 5 5 5 7 7 6 6 7 8 8 8 8 9 9 9 8 7 6 6 5 5 5 4 4
4 4 3 1 2 3 2 4 6 5 5 6 5 8 7 4 2 3 5 6 7 6 6 6 6 6 7 7 8 8 8 8 9 9 8 7 6 6 6 5 5 5 4 4
2 5 4 3 2 2 3 5 5 4 4 6 7 7 2 1 3 5 5 6 6 7 6 5 6 6 6 6 7 8 7 7 7 7 7 7 6 6 5 6 5 5 4 4
5 5 4 3 3 5 8 4 4 5 4 4 4 3 3 4 2 2 3 5 5 4 5 4 4 4 4 4 5 6 7 8 7 7 6 6 6 6 5 5 6 5 4 4
6 8 5 4 4 4 5 3 3 4 4 3 4 2 1 1 3 2 1 3 4 4 4 4 4 4 4 5 6 7 6 7 7 7 7 7 7 6 6 6 5 5 5 4
4 5 6 5 5 7 8 4 2 4 4 2 3 3 2 2 1 3 2 1 2 3 3 3 4 4 5 5 7 8 7 7 7 7 6 6 7 7 7 7 6 4 4 4
4 3 4 5 5 7 6 4 2 5 7 3 4 4 5 4 5 3 2 1 2 2 3 4 4 5 5 6 7 7 6 6 6 6 6 6 6 7 7 6 5 5 5 5
5 5 5 5 5 7 3 1 5 6 3 3 3 4 4 3 1 2 3 3 3 3 3 4 4 3 3 5 7 6 4 4 4 5 6 6 6 6 5 6 5 5 5 5
4 6 6 7 7 4 2 4 4 3 3 3 2 2 3 3 2 2 2 3 3 3 3 3 4 4 3 4 6 6 4 4 5 5 5 5 5 5 5 6 6 5 5 4
2 2 3 2 4 4 3 2 2 2 3 3 3 2 4 4 3 3 3 2 3 3 3 3 5 5 3 2 3 4 4 5 6 6 5 5 5 4 4 4 5 5 5 5
4 1 2 2 3 3 3 2 1 1 1 1 0 1 3 5 3 4 4 3 3 2 2 4 5 5 4 3 3 3 4 6 6 6 5 5 5 5 4 3 3 4 5 6
4 5 5 6 6 4 5 4 2 0 1 1 0 1 0 3 4 4 3 4 4 3 3 3 4 4 4 4 3 3 4 6 7 6 5 4 4 4 4 4 2 1 2 5
Wind_Direction
57 86 165 201 193 178 160 162 192 227 194 158 186 203 195 184 189 197 197 198 203 211 204 182 178 172 167 167 169 168 162 157 141 126 126 121 126 57 24 13 47 117 122 125
52 225 219 189 168 143 140 153 196 269 119 144 174 229 212 195 202 202 200 201 204 201 195 189 181 177 178 180 180 182 181 171 168 157 146 143 136 129 106 28 48 110 129 136
177 226 177 147 152 155 178 185 192 174 83 61 90 327 235 225 213 215 212 205 203 199 197 194 188 188 184 188 188 190 189 179 176 161 125 102 76 52 51 40 18 23 123 138
213 237 151 145 171 156 228 216 170 142 117 349 111 270 274 226 222 222 217 206 206 203 197 195 192 193 196 198 187 185 182 178 174 159 154 156 162 177 202 177 121 23 63 106
220 185 152 180 198 164 189 105 111 110 113 60 37 170 285 209 232 234 221 212 208 200 195 196 197 199 199 190 181 182 175 176 174 166 167 166 173 182 160 126 105 64 46 68
225 217 189 193 147 136 119 76 61 52 69 357 245 180 275 227 221 231 219 215 210 200 197 196 194 187 188 180 175 175 172 180 177 173 175 179 181 176 163 161 155 123 53 36
314 301 248 145 104 78 102 96 50 17 11 252 259 209 251 248 227 219 217 213 203 194 191 188 185 185 186 182 181 179 177 186 181 179 184 188 185 180 182 182 179 174 173 224
171 266 248 185 167 167 167 141 155 180 210 259 286 237 257 267 250 227 214 194 188 190 191 192 191 189 190 188 184 181 183 189 182 180 185 187 181 179 186 185 180 183 194 211
169 236 282 241 164 137 137 160 155 132 143 180 270 281 301 286 306 211 189 179 190 193 192 193 190 189 190 189 187 184 184 188 185 184 180 181 178 178 183 177 175 183 191 186
152 204 280 291 81 41 134 141 107 121 144 214 281 274 255 262 243 217 198 200 201 193 191 191 191 191 190 188 184 179 182 187 185 180 182 183 177 180 178 166 170 174 175 157
131 155 300 33 142 158 100 93 103 115 147 156 220 262 227 225 220 210 210 205 196 192 191 193 190 186 180 176 176 178 180 182 180 179 177 171 170 172 173 174 181 178 170 163
131 128 211 264 277 195 143 152 143 147 191 172 177 258 265 232 225 204 201 196 190 184 180 180 180 172 171 177 179 181 181 184 185 176 169 170 169 169 174 181 182 172 170 168
130 118 108 344 347 13 90 125 130 121 119 151 174 258 302 341 226 197 185 181 174 171 162 160 164 172 178 181 181 181 181 183 177 167 164 164 169 180 183 183 176 170 169 162
119 116 163 191 207 192 171 157 146 125 145 187 217 248 287 281 237 218 191 182 171 167 162 164 173 178 181 178 176 176 178 175 171 166 168 175 183 184 182 178 173 172 168 164
104 142 181 208 207 182 188 196 186 184 183 185 223 230 254 246 230 214 187 175 163 162 162 173 178 178 179 175 171 169 170 170 169 167 174 184 181 172 170 173 172 164 164 172
78 136 142 204 210 187 210 226 205 207 193 215 235 252 261 248 180 183 187 179 172 174 182 181 175 173 179 179 175 166 167 167 163 168 177 175 170 169 173 177 170 161 163 160
93 121 123 212 274 76 255 233 201 200 200 186 214 240 266 220 197 201 197 188 184 183 185 185 184 182 187 184 175 171 169 156 157 166 170 165 165 167 173 172 164 167 168 161
142 121 131 147 114 206 236 237 201 190 213 208 222 246 225 215 212 175 179 183 181 178 177 185 188 181 173 163 157 154 149 151 157 164 167 164 163 167 163 163 167 170 164 165
163 142 131 138 174 249 283 243 176 183 243 227 216 242 307 87 57 15 247 186 180 178 177 176 176 170 157 152 148 140 146 150 159 171 175 173 169 167 167 173 177 175 164 166
100 115 128 139 161 214 237 246 215 150 254 242 182 193 178 92 125 262 263 173 154 147 146 150 142 131 138 146 144 142 152 159 176 183 178 173 171 170 175 183 182 171 160 167
95 95 149 167 196 245 252 280 115 168 233 231 190 199 186 186 208 220 177 121 122 127 134 133 131 138 152 149 142 146 154 175 186 170 161 169 177 178 175 174 173 159 155 155
164 157 176 158 181 238 262 128 171 214 226 193 187 188 185 189 176 141 135 124 117 114 121 127 125 121 125 137 139 143 168 183 162 154 154 165 171 172 168 164 165 160 157 159
191 189 182 186 206 239 237 213 237 199 188 199 189 189 169 158 152 145 142 139 131 132 134 127 130 126 129 143 147 157 178 162 152 149 156 159 158 162 163 166 166 159 157 165
261 170 148 200 258 270 278 267 261 218 205 202 189 192 161 154 164 161 150 154 147 139 144 138 138 141 153 162 152 159 157 152 151 153 157 154 150 149 150 158 162 165 173 177
235 178 149 229 266 321 316 286 272 352 47 40 30 170 171 155 160 165 156 164 166 151 154 150 154 159 166 162 156 159 161 153 150 154 156 154 152 152 155 165 172 184 196 192
221 196 186 216 219 202 254 278 284 261 289 264 116 37 180 158 157 155 155 159 156 158 160 158 155 157 164 163 166 171 163 160 157 159 163 162 161 160 163 167 164 171 205 205
Height
1482 1489 1497 1494 1492 1495 1500 1507 1511 1507 1501 1505 1509 1511 1509 1510 1513 1514 1516 1518 1519 1521 1524 1526 1528 1530 1532 1534 1535 1537 1538 1539 1540 1541 1542 1543 1544 1545 1545 1545 1546 1546 1546 1547
1489 1493 1487 1487 1489 1493 1499 1506 1508 1504 1500 1505 1510 1511 1508 1508 1508 1510 1512 1514 1516 1519 1522 1524 1526 1529 1531 1532 1534 1536 1538 1539 1540 1542 1543 1543 1544 1544 1545 1546 1546 1546 1547 1547
1489 1488 1483 1487 1491 1496 1499 1504 1505 1507 1504 1506 1510 1515 1510 1507 1508 1510 1511 1512 1514 1516 1519 1521 1524 1526 1529 1531 1533 1535 1537 1539 1540 1541 1542 1543 1544 1544 1545 1546 1546 1547 1547 1548
1485 1482 1483 1487 1491 1493 1503 1494 1497 1503 1512 1521 1516 1531 1514 1508 1507 1506 1507 1508 1510 1513 1516 1518 1521 1524 1526 1529 1532 1534 1536 1538 1539 1541 1542 1543 1543 1544 1545 1546 1546 1547 1547 1548
1484 1481 1483 1488 1487 1488 1494 1492 1498 1505 1514 1523 1521 1529 1520 1509 1509 1504 1502 1503 1505 1509 1512 1515 1518 1521 1524 1527 1530 1532 1535 1537 1538 1540 1541 1542 1543 1544 1545 1545 1546 1546 1547 1548
1480 1478 1479 1481 1482 1485 1490 1498 1505 1514 1522 1535 1524 1529 1523 1511 1503 1498 1496 1498 1501 1504 1508 1511 1515 1519 1522 1525 1528 1530 1533 1535 1537 1539 1540 1541 1542 1543 1544 1545 1546 1546 1547 1547
1484 1480 1477 1478 1485 1488 1492 1512 1533 1537 1544 1540 1524 1526 1519 1496 1492 1491 1491 1492 1496 1500 1504 1508 1511 1515 1518 1521 1525 1528 1530 1533 1535 1537 1538 1540 1542 1543 1544 1544 1545 1546 1547 1547
1495 1497 1480 1477 1482 1491 1495 1505 1530 1543 1546 1538 1526 1526 1505 1489 1487 1487 1487 1488 1492 1496 1500 1503 1507 1511 1515 1518 1522 1525 1528 1531 1533 1535 1537 1539 1541 1542 1543 1544 1545 1546 1546 1546
1496 1495 1478 1475 1475 1482 1495 1503 1505 1525 1532 1538 1531 1518 1499 1487 1486 1485 1486 1487 1489 1492 1496 1499 1503 1508 1512 1515 1519 1522 1526 1529 1531 1534 1536 1537 1539 1540 1542 1543 1544 1545 1545 1546
1483 1492 1481 1476 1476 1481 1485 1496 1512 1526 1540 1541 1529 1520 1511 1493 1488 1486 1485 1486 1487 1490 1493 1497 1500 1504 1508 1512 1516 1520 1524 1527 1530 1532 1534 1536 1538 1539 1541 1542 1543 1544 1544 1545
1478 1490 1487 1482 1484 1488 1492 1499 1509 1521 1522 1536 1537 1522 1489 1487 1483 1483 1483 1483 1485 1488 1491 1494 1498 1502 1506 1510 1514 1518 1521 1524 1528 1530 1532 1535 1536 1538 1539 1540 1541 1542 1543 1544
1479 1491 1498 1490 1481 1480 1483 1492 1503 1515 1522 1526 1528 1515 1479 1479 1478 1479 1481 1483 1484 1486 1489 1492 1496 1500 1503 1507 1511 1515 1519 1522 1525 1528 1531 1533 1535 1536 1538 1539 1539 1541 1542 1543
1478 1491 1504 1501 1496 1488 1487 1491 1496 1506 1519 1527 1526 1508 1478 1478 1477 1478 1479 1481 1483 1485 1488 1491 1494 1497 1500 1504 1508 1512 1516 1519 1523 1526 1529 1531 1533 1534 1536 1537 1538 1539 1540 1541
1472 1489 1497 1504 1500 1492 1491 1491 1495 1502 1516 1521 1513 1498 1483 1479 1478 1478 1478 1480 1482 1484 1486 1489 1492 1495 1498 1501 1505 1509 1513 1517 1520 1523 1526 1528 1530 1532 1534 1535 1536 1537 1538 1539
1473 1487 1487 1487 1484 1485 1486 1487 1491 1493 1498 1504 1498 1494 1482 1478 1476 1476 1477 1479 1481 1483 1485 1488 1491 1493 1496 1499 1502 1506 1510 1514 1517 1520 1523 1525 1527 1529 1531 1532 1533 1535 1535 1536
1476 1485 1486 1487 1483 1483 1485 1484 1485 1487 1489 1491 1489 1487 1476 1475 1475 1476 1477 1478 1479 1481 1484 1486 1489 1492 1495 1497 1500 1503 1507 1511 1514 1517 1520 1522 1524 1526 1528 1529 1531 1532 1533 1534
1482 1485 1493 1495 1487 1485 1492 1484 1483 1483 1482 1484 1487 1481 1475 1474 1474 1473 1474 1476 1477 1479 1482 1485 1487 1490 1492 1495 1498 1501 1504 1508 1511 1514 1517 1519 1522 1524 1525 1527 1528 1529 1530 1531
1481 1487 1495 1498 1493 1502 1487 1474 1474 1476 1477 1476 1475 1474 1473 1472 1472 1473 1474 1475 1477 1479 1481 1483 1486 1488 1491 1494 1496 1499 1502 1505 1508 1511 1514 1516 1518 1521 1522 1524 1525 1526 1527 1529
1473 1483 1495 1502 1501 1493 1480 1473 1473 1476 1477 1473 1473 1472 1472 1472 1472 1473 1473 1474 1476 1478 1480 1482 1485 1487 1489 1492 1495 1497 1500 1503 1506 1508 1511 1513 1516 1518 1520 1521 1522 1523 1524 1525
1474 1478 1490 1498 1498 1499 1480 1467 1467 1472 1478 1470 1470 1471 1471 1472 1477 1475 1473 1474 1475 1477 1479 1481 1484 1486 1488 1491 1493 1496 1498 1500 1503 1505 1508 1510 1513 1514 1516 1518 1520 1521 1522 1523
1480 1485 1489 1493 1493 1485 1470 1466 1467 1482 1477 1467 1467 1468 1469 1470 1471 1471 1472 1473 1474 1476 1478 1481 1483 1484 1487 1489 1491 1493 1495 1497 1500 1502 1505 1507 1510 1511 1512 1514 1516 1517 1518 1520
1478 1484 1488 1491 1491 1485 1465 1465 1469 1469 1464 1464 1464 1466 1466 1467 1468 1469 1470 1472 1473 1475 1477 1480 1481 1483 1485 1487 1489 1491 1493 1496 1498 1500 1501 1504 1506 1507 1509 1510 1512 1514 1515 1516
1472 1472 1474 1476 1475 1465 1462 1463 1462 1462 1462 1462 1462 1463 1465 1465 1466 1467 1469 1470 1472 1474 1476 1478 1480 1482 1484 1486 1488 1490 1492 1494 1496 1498 1499 1501 1503 1504 1506 1507 1508 1510 1512 1513
1467 1466 1468 1469 1465 1462 1461 1461 1461 1461 1460 1461 1461 1462 1463 1463 1465 1466 1468 1470 1471 1472 1474 1476 1478 1480 1483 1485 1487 1489 1491 1493 1494 1495 1497 1499 1500 1502 1504 1505 1506 1507 1509 1510
1465 1465 1465 1465 1463 1461 1460 1460 1460 1459 1459 1460 1461 1461 1462 1462 1463 1464 1465 1468 1470 1471 1473 1475 1477 1479 1481 1483 1485 1487 1489 1491 1492 1494 1495 1497 1498 1499 1501 1502 1503 1505 1506 1507
1461 1462 1463 1462 1459 1460 1459 1459 1459 1458 1458 1458 1459 1460 1461 1461 1462 1463 1464 1466 1468 1469 1471 1473 1475 1477 1479 1481 1483 1485 1487 1489 1490 1491 1493 1494 1495 1497 1498 1499 1501 1502 1504 1504